Tracking 27107 objects as of 20-Mar-2023
HD Live streaming from Space Station
objects crossing your sky now

STARLINK-3135

Track STARLINK-3135 now!
10-day predictions
STARLINK-3135 is classified as:


NORAD ID: 49424
Int'l Code: 2021-104S
Perigee: 545.9 km
Apogee: 547.8 km
Inclination: 53.2 °
Period: 95.4 minutes
Semi major axis: 6917 km
RCS: Unknown
Launch date: November 13, 2021
Source: United States (US)
Launch site: AIR FORCE EASTERN TEST RANGE (AFETR)
Your satellite tracking list
Your tracking list is empty




NASA's NSSDC Master Catalog

Two Line Element Set (TLE):
1 49424U 21104S   23079.34627282  .00007158  00000-0  46729-3 0  9998
2 49424  53.2159  61.4122 0001417  96.7952 263.3201 15.08847531 75851
Source of the keplerian elements: AFSPC